This is the latest recevied weather packets stored in our database for station/object HP1CDW-13. If no packets are shown the sender has not sent any weather packets the latest 1 day(s).
| Time | Temp. | Humidity | Pressure | Rain* | Wind** | Luminosity | Snow |
|---|---|---|---|---|---|---|---|
| 1777993490 | 30.56° C | 79% | 1015.1 hPa | 0 mm | 0.45 m/s, 38° | - | - |
| 1777992890 | 30.56° C | 78% | 1015 hPa | 0 mm | 1.34 m/s, 168° | - | - |
| 1777992290 | 30° C | 80% | 1015.2 hPa | 0 mm | 0.45 m/s, 107° | - | - |
| 1777991690 | 30° C | 80% | 1015 hPa | 0 mm | 0.89 m/s, 158° | - | - |
| 1777991090 | 29.44° C | 82% | 1015 hPa | 0 mm | 0.89 m/s, 217° | - | - |
| 1777990490 | 29.44° C | 81% | 1015 hPa | 0 mm | 0.89 m/s, 83° | - | - |
| 1777989890 | 30° C | 79% | 1014.9 hPa | 0 mm | 0.89 m/s, 207° | - | - |
| 1777989290 | 30° C | 79% | 1015 hPa | 0 mm | 1.34 m/s, 240° | - | - |
| 1777988690 | 30° C | 79% | 1014.8 hPa | 0 mm | 0.89 m/s, 186° | - | - |
| 1777988090 | 29.44° C | 80% | 1014.9 hPa | 0 mm | 0.45 m/s, 274° | - | - |
| 1777987490 | 29.44° C | 80% | 1014.5 hPa | 0 mm | 0 m/s | - | - |
| 1777986890 | 28.89° C | 81% | 1014.8 hPa | 0 mm | 1.34 m/s, 309° | - | - |
| 1777986290 | 28.89° C | 83% | 1014.5 hPa | 0 mm | 0 m/s | - | - |
| 1777985690 | 28.33° C | 85% | 1014.4 hPa | 0 mm | 0.45 m/s, 321° | - | - |
| 1777985090 | 27.78° C | 86% | 1014.4 hPa | 0 mm | 0.89 m/s, 298° | - | - |
| 1777984490 | 27.22° C | 87% | 1014.4 hPa | 0 mm | 0.45 m/s, 290° | - | - |
| 1777983890 | 27.22° C | 88% | 1014.2 hPa | 0 mm | 0.89 m/s, 317° | - | - |
| 1777983290 | 26.67° C | 89% | 1013.7 hPa | 0 mm | 0.45 m/s, 286° | - | - |
| 1777982690 | 26.11° C | 91% | 1014 hPa | 0 mm | 0.89 m/s, 4° | - | - |
| 1777982090 | 26.11° C | 93% | 1014.1 hPa | 0 mm | 0.45 m/s, 300° | - | - |
| 1777981490 | 25.56° C | 93% | 1013.6 hPa | 0 mm | 0 m/s | - | - |
| 1777980890 | 25.56° C | 93% | 1013.6 hPa | 0 mm | 0.45 m/s, 265° | - | - |
| 1777980290 | 25.56° C | 93% | 1013.6 hPa | 0 mm | 0.45 m/s, 340° | - | - |
| 1777979690 | 25.56° C | 94% | 1013.5 hPa | 0 mm | 0.89 m/s, 315° | - | - |
| 1777979090 | 25.56° C | 94% | 1013.7 hPa | 0 mm | 0 m/s | - | - |
* Rain latest hour (hover to see other rain measurements)
** Current wind speed in m/s (hover to see current wind gust speed)